Lid_Strength_Index
0 -0 -0 1 -0 -1 -1 -1 -0 1 1 -0 0 2 2 3 3 5 9 9 7 3 5 8 7 8 8 8 8 9 13 15 14 14 12 11 12 10 9 11 11 8 8 7 7
1 1 -0 -0 0 -1 -1 -1 -1 -0 1 -0 -1 0 2 2 5 7 5 4 3 2 8 9 8 7 9 9 9 11 13 13 12 13 13 12 12 11 11 13 10 9 8 7 7
2 2 1 -1 -1 -0 -1 -1 -1 -1 0 -0 -0 -0 1 3 8 8 2 2 0 2 7 7 8 8 9 9 10 10 12 12 11 11 11 11 12 11 12 12 10 10 9 8 8
2 3 2 1 -1 -1 0 -1 -1 -1 -1 0 -0 -1 1 4 16 6 0 1 -0 5 6 7 7 9 10 11 10 13 11 11 10 10 10 13 11 12 12 10 9 9 9 8 8
1 3 3 3 2 1 1 1 -1 -1 -1 -0 -0 -0 4 7 9 4 1 1 5 5 7 8 9 10 11 11 11 11 11 11 10 11 12 12 12 13 12 10 9 9 10 9 9
2 3 4 4 4 3 2 2 2 0 -0 -1 0 2 6 13 5 3 4 5 6 7 8 8 9 9 10 11 11 10 11 11 11 11 12 13 13 13 10 10 10 10 10 10 10
3 3 5 5 5 4 4 3 3 3 1 -0 -0 6 8 10 5 3 4 7 6 7 8 7 8 10 10 12 10 10 12 12 12 12 13 13 13 11 9 10 10 10 10 10 10
3 3 5 6 6 5 4 4 3 4 2 -0 1 6 10 6 5 5 4 5 5 5 6 7 7 9 10 10 12 13 13 15 13 13 13 13 13 10 10 10 10 10 10 10 10
3 2 4 5 6 5 5 4 4 3 2 1 5 8 9 5 7 5 5 5 5 5 5 7 8 10 11 14 15 15 17 16 14 13 13 13 12 10 10 10 10 9 10 10 10
3 3 4 5 5 6 5 4 3 2 3 5 6 9 7 10 8 6 5 5 6 7 7 8 11 13 14 15 18 17 17 17 16 13 12 13 13 10 10 10 10 9 10 10 10
3 4 4 5 5 5 6 6 5 7 6 9 10 10 7 7 7 8 6 6 8 9 12 10 13 15 13 12 13 14 15 16 15 13 14 14 13 11 10 11 10 10 11 11 11
3 4 5 5 6 5 5 8 7 8 10 7 7 8 8 7 9 9 7 10 10 13 11 13 15 12 11 13 13 14 15 15 13 12 13 14 13 11 11 11 11 11 11 11 11
4 5 5 5 4 5 6 7 5 6 12 11 7 8 8 9 10 9 7 10 13 13 13 14 13 12 12 14 14 15 15 15 15 13 13 15 14 13 12 12 12 12 12 11 11
4 5 5 4 7 6 8 6 6 5 15 15 11 8 8 10 12 7 7 9 13 14 14 14 12 13 13 14 14 16 13 13 14 14 17 14 18 16 13 13 12 12 12 12 12
4 4 5 5 9 8 8 8 6 7 20 13 10 8 10 9 11 11 7 10 12 13 14 16 14 14 14 13 12 14 12 13 14 15 16 16 18 15 14 15 13 13 13 12 12
3 4 5 8 7 7 8 7 6 17 24 13 11 13 11 10 12 11 10 10 10 12 13 15 13 14 14 13 13 13 14 14 15 16 20 18 18 16 16 16 15 14 14 13 12
2 3 5 7 8 6 5 5 17 24 16 14 14 13 11 12 12 12 13 14 15 16 17 15 14 13 13 15 14 14 15 18 20 21 20 18 19 16 16 16 16 16 15 14 12
1 4 6 7 6 5 5 13 25 20 15 11 12 12 13 11 12 12 14 16 15 16 17 17 19 13 12 13 14 16 15 19 22 23 21 18 19 16 16 15 15 15 15 15 14
2 8 9 8 4 4 7 22 21 17 12 11 11 13 13 12 12 12 13 15 14 14 15 18 18 13 12 12 12 14 16 15 20 23 22 19 17 15 16 16 16 16 17 17 16
8 9 9 7 4 4 9 17 13 10 9 10 14 12 15 13 13 13 13 12 12 12 12 14 18 16 14 12 13 14 13 16 18 24 24 21 19 19 18 18 17 18 18 17 17
9 11 8 8 5 8 14 20 11 8 8 11 12 13 13 14 13 13 13 11 11 12 11 12 14 17 16 16 16 15 15 15 15 17 21 22 19 17 18 17 18 17 17 17 17
11 17 8 7 11 15 17 12 9 10 9 9 9 11 12 12 13 13 13 11 9 10 13 12 13 17 17 16 15 16 16 16 18 20 19 18 19 15 16 16 17 17 17 17 17
15 16 9 8 16 18 13 12 11 11 12 11 11 10 9 12 14 12 11 9 9 9 11 11 15 18 17 15 16 17 16 16 16 17 20 20 20 16 16 17 17 17 17 17 17
15 17 14 13 15 17 15 15 12 11 13 11 12 10 10 12 12 14 13 11 10 11 9 9 13 16 18 17 16 17 17 16 15 18 19 19 20 19 18 19 19 19 18 18 18
15 13 14 17 16 16 15 16 15 17 14 13 12 13 13 14 15 16 14 12 12 13 10 11 15 14 14 14 14 15 16 16 16 16 17 18 18 19 18 19 19 18 18 19 19
15 15 16 15 13 17 16 15 16 16 17 20 16 14 13 16 18 17 16 16 17 15 12 12 15 15 17 14 14 15 13 13 14 15 16 16 19 18 18 17 18 19 19 19 19
9 10 13 14 15 18 16 14 14 14 14 14 16 15 17 16 15 15 15 15 15 17 17 17 15 18 20 16 16 17 18 17 16 18 17 17 19 17 18 18 18 18 18 19 18